EW1090 Weather Reports


Display with metric or nautical units.
time (UTC)temp
F
wind
direction
speed
MPH
gust
MPH
rain 1hr
in
rain 24hr
in
rain mn
in
humidity
%
barometer
mb
20181022120320 60 77 2.0 8.0 0.00 0.00 0.00 79 1021.7
20181022114822 60 63 2.0 7.0 0.00 0.00 0.00 79 1021.5
20181022113325 60 48 2.0 7.0 0.00 0.00 0.00 78 1021.5
20181022111829 61 76 1.0 7.0 0.00 0.00 0.00 77 1021.2
20181022110328 60 56 2.0 6.0 0.00 0.00 0.00 77 1021.2
20181022104836 61 65 3.0 7.0 0.00 0.00 0.00 76 1021.1
20181022103422 60 64 1.0 8.0 0.00 0.00 0.00 75 1020.9
20181022101820 61 59 3.0 8.0 0.00 0.00 0.00 74 1020.9
20181022100339 61 42 1.0 5.0 0.00 0.00 0.00 73 1021.0
20181022094821 61 56 4.0 9.0 0.00 0.00 0.00 72 1021.0
20181022093323 61 57 3.0 8.0 0.00 0.00 0.00 71 1020.9
20181022091825 61 94 3.0 8.0 0.00 0.00 0.00 70 1020.9
20181022090329 61 28 1.0 8.0 0.00 0.00 0.00 70 1020.9
20181022084832 61 49 3.0 10.0 0.00 0.00 0.00 68 1021.1
20181022083331 61 57 2.0 7.0 0.00 0.00 0.00 68 1021.2
20181022081836 61 78 4.0 8.0 0.00 0.00 0.00 67 1021.1
20181022080336 61 64 2.0 7.0 0.00 0.00 0.00 67 1021.1
20181022074822 61 39 3.0 9.0 0.00 0.00 0.00 67 1021.4
20181022073322 60 67 2.0 6.0 0.00 0.00 0.00 68 1021.6
20181022071825 60 34 2.0 6.0 0.00 0.00 0.00 68 1021.5
20181022070329 60 64 3.0 9.0 0.00 0.00 0.00 67 1021.6
20181022064832 60 30 2.0 7.0 0.00 0.00 0.00 67 1021.7
20181022063331 60 68 2.0 5.0 0.00 0.00 0.00 65 1021.6
20181022061838 60 72 1.0 6.0 0.00 0.00 0.00 63 1021.7
20181022060338 60 70 1.0 6.0 0.00 0.00 0.00 62 1021.6
20181022054824 60 57 2.0 8.0 0.00 0.00 0.00 62 1022.0
20181022053323 60 37 3.0 8.0 0.00 0.00 0.00 62 1022.0
20181022051823 61 63 3.0 8.0 0.00 0.00 0.00 63 1022.0
20181022050328 61 68 4.0 9.0 0.00 0.00 0.00 62 1022.4
20181022044828 61 52 3.0 7.0 0.00 0.00 0.00 60 1022.4
20181022043333 61 73 2.0 9.0 0.00 0.00 0.00 60 1022.6
20181022041834 62 74 3.0 12.0 0.00 0.00 0.00 60 1022.6
20181022040333 62 92 2.0 11.0 0.00 0.00 0.00 61 1022.6
20181022034838 62 73 3.0 10.0 0.00 0.00 0.00 60 1022.6
20181022033338 63 81 3.0 10.0 0.00 0.00 0.00 58 1022.6
20181022031825 63 74 2.0 8.0 0.00 0.00 0.00 57 1022.5
20181022030324 64 31 2.0 12.0 0.00 0.00 0.00 54 1022.5
20181022024828 65 46 4.0 13.0 0.00 0.00 0.00 53 1022.4
20181022023333 66 66 5.0 14.0 0.00 0.00 0.00 52 1022.2
20181022021837 66 105 5.0 10.0 0.00 0.00 0.00 51 1022.2
20181022020339 66 82 4.0 9.0 0.00 0.00 0.00 50 1022.1
20181022014822 67 94 3.0 10.0 0.00 0.00 0.00 49 1021.9
20181022013320 67 71 2.0 10.0 0.00 0.00 0.00 47 1022.0
20181022011827 67 67 3.0 9.0 0.00 0.00 0.00 47 1022.0
20181022010327 67 65 2.0 9.0 0.00 0.00 0.00 48 1021.9
20181022004831 67 67 2.0 8.0 0.00 0.00 0.00 45 1021.7
20181022003331 68 69 3.0 7.0 0.00 0.00 0.00 48 1021.6
20181022001831 68 58 2.0 8.0 0.00 0.00 0.00 51 1021.3
20181022000335 68 68 2.0 7.0 0.00 0.00 0.00 50 1021.3
20181021234838 68 66 2.0 7.0 0.00 0.00 0.00 49 1021.2
20181021233336 68 56 2.0 7.0 0.00 0.00 0.00 49 1021.3
20181021231822 69 46 4.0 9.0 0.00 0.00 0.00 49 1021.2
20181021230321 70 44 1.0 8.0 0.00 0.00 0.00 48 1021.1
20181021224827 70 62 2.0 6.0 0.00 0.00 0.00 47 1021.0
20181021223326 70 36 1.0 7.0 0.00 0.00 0.00 45 1021.0
20181021221829 72 47 2.0 8.0 0.00 0.00 0.00 45 1020.9
20181021220332 72 76 2.0 5.0 0.00 0.00 0.00 46 1020.7
20181021214836 72 38 1.0 5.0 0.00 0.00 0.00 46 1020.8
20181021213339 72 94 1.0 7.0 0.00 0.00 0.00 46 1020.8
20181021211842 72 65 3.0 7.0 0.00 0.00 0.00 45 1020.8
20181021210340 72 45 0.0 6.0 0.00 0.00 0.00 46 1020.8
20181021204825 72 63 1.0 10.0 0.00 0.00 0.00 47 1020.7
20181021203325 72 62 2.0 8.0 0.00 0.00 0.00 47 1020.9
20181021201831 72 55 4.0 8.0 0.00 0.00 0.00 46 1020.9
20181021200331 72 70 1.0 8.0 0.00 0.00 0.00 47 1020.9
20181021194832 72 71 3.0 7.0 0.00 0.00 0.00 47 1021.2
20181021193336 72 54 3.0 9.0 0.00 0.00 0.00 48 1021.3
20181021191838 71 302 2.0 9.0 0.00 0.00 0.00 50 1021.5
20181021190322 70 69 3.0 10.0 0.00 0.00 0.00 50 1021.8
20181021184822 71 81 4.0 10.0 0.00 0.00 0.00 48 1022.0
20181021183323 71 78 1.0 8.0 0.00 0.00 0.00 52 1022.3
20181021181829 70 61 2.0 12.0 0.00 0.00 0.00 52 1022.5
20181021180327 70 5 2.0 8.0 0.00 0.00 0.00 52 1022.8
20181021174834 69 24 3.0 8.0 0.00 0.00 0.00 50 1023.1
20181021173335 69 84 2.0 9.0 0.00 0.00 0.00 53 1023.4
20181021171837 68 99 6.0 10.0 0.00 0.00 0.00 52 1023.6
20181021170341 68 42 3.0 13.0 0.00 0.00 0.00 53 1023.8
20181021164823 68 50 6.0 12.0 0.00 0.00 0.00 52 1023.9
20181021163328 68 22 6.0 12.0 0.00 0.00 0.00 52 1024.3
20181021161830 67 55 4.0 12.0 0.00 0.00 0.00 56 1024.4
20181021160328 67 75 4.0 13.0 0.00 0.00 0.00 56 1024.4
20181021154835 67 71 6.0 13.0 0.00 0.00 0.00 58 1024.4
20181021153334 66 33 6.0 15.0 0.00 0.00 0.00 61 1024.4
20181021151835 66 78 6.0 15.0 0.00 0.00 0.00 61 1024.3
20181021150339 66 23 5.0 12.0 0.00 0.00 0.00 63 1024.4
20181021144840 65 56 5.0 13.0 0.00 0.00 0.00 64 1024.4
20181021143324 65 100 6.0 14.0 0.00 0.00 0.00 64 1024.3
20181021141826 65 84 3.0 11.0 0.00 0.00 0.00 64 1024.1
20181021140324 65 111 7.0 14.0 0.00 0.00 0.00 64 1024.0
20181021134830 64 19 5.0 16.0 0.00 0.00 0.00 66 1023.6
20181021133330 64 117 2.0 11.0 0.00 0.00 0.00 70 1023.4
20181021131838 64 68 7.0 14.0 0.00 0.00 0.00 70 1023.3
20181021130337 64 52 5.0 16.0 0.00 0.00 0.00 68 1023.2
20181021124840 65 40 6.0 12.0 0.00 0.00 0.00 64 1023.0
20181021123342 65 69 6.0 14.0 0.00 0.00 0.00 63 1022.7
20181021121824 65 80 5.0 13.0 0.00 0.00 0.00 60 1022.6